Year,Month,Day,Hour,Minute,Value (Times are PST for temperature in C)
2009,04,24,00,00,7.80
2009,04,24,00,01,7.80
2009,04,24,00,02,7.80
2009,04,24,00,03,7.80
2009,04,24,00,04,7.80
2009,04,24,00,05,7.80
2009,04,24,00,06,7.80
2009,04,24,00,07,7.80
2009,04,24,00,08,7.80
2009,04,24,00,09,7.80
2009,04,24,00,10,7.80
2009,04,24,00,11,7.80
2009,04,24,00,12,7.80
2009,04,24,00,13,7.80
2009,04,24,00,14,7.80
2009,04,24,00,15,7.80
2009,04,24,00,16,7.90
2009,04,24,00,17,7.90
2009,04,24,00,18,7.90
2009,04,24,00,19,7.90
2009,04,24,00,20,7.90
2009,04,24,00,21,7.90
2009,04,24,00,22,7.90
2009,04,24,00,23,7.90
2009,04,24,00,24,7.90
2009,04,24,00,25,7.90
2009,04,24,00,26,7.90
2009,04,24,00,27,7.80
2009,04,24,00,28,7.80
2009,04,24,00,29,7.80
2009,04,24,00,30,7.80
2009,04,24,00,31,7.80
2009,04,24,00,32,7.80
2009,04,24,00,33,7.80
2009,04,24,00,34,7.80
2009,04,24,00,35,7.80
2009,04,24,00,36,7.80
2009,04,24,00,37,7.70
2009,04,24,00,38,7.70
2009,04,24,00,39,7.70
2009,04,24,00,40,7.70
2009,04,24,00,41,7.70
2009,04,24,00,42,7.70
2009,04,24,00,43,7.60
2009,04,24,00,44,7.60
2009,04,24,00,45,7.60
2009,04,24,00,46,7.50
2009,04,24,00,47,7.50
2009,04,24,00,48,7.40
2009,04,24,00,49,7.40
2009,04,24,00,50,7.30
2009,04,24,00,51,7.30
2009,04,24,00,52,7.30
2009,04,24,00,53,7.30
2009,04,24,00,54,7.30
2009,04,24,00,55,7.30
2009,04,24,00,56,7.30
2009,04,24,00,57,7.30
2009,04,24,00,58,7.30
2009,04,24,00,59,7.30
2009,04,24,01,00,7.30
2009,04,24,01,01,7.30
2009,04,24,01,02,7.30
2009,04,24,01,03,7.30
2009,04,24,01,04,7.40
2009,04,24,01,05,7.40
2009,04,24,01,06,7.40
2009,04,24,01,07,7.40
2009,04,24,01,08,7.40
2009,04,24,01,09,7.40
2009,04,24,01,10,7.40
2009,04,24,01,11,7.40
2009,04,24,01,12,7.40
2009,04,24,01,13,7.40
2009,04,24,01,14,7.40
2009,04,24,01,15,7.40
2009,04,24,01,16,7.40
2009,04,24,01,17,7.40
2009,04,24,01,18,7.40
2009,04,24,01,19,7.40
2009,04,24,01,20,7.30
2009,04,24,01,21,7.30
2009,04,24,01,22,7.30
2009,04,24,01,23,7.30
2009,04,24,01,24,7.30
2009,04,24,01,25,7.30
2009,04,24,01,26,7.30
2009,04,24,01,27,7.30
2009,04,24,01,28,7.30
2009,04,24,01,29,7.30
2009,04,24,01,30,7.30
2009,04,24,01,31,7.30
2009,04,24,01,32,7.30
2009,04,24,01,33,7.30
2009,04,24,01,34,7.30
2009,04,24,01,35,7.30
2009,04,24,01,36,7.30
2009,04,24,01,37,7.30
2009,04,24,01,38,7.30
2009,04,24,01,39,7.30
2009,04,24,01,40,7.30
2009,04,24,01,41,7.30
2009,04,24,01,42,7.30
2009,04,24,01,43,7.30
2009,04,24,01,44,7.30
2009,04,24,01,45,7.30
2009,04,24,01,46,7.30
2009,04,24,01,47,7.30
2009,04,24,01,48,7.30
2009,04,24,01,49,7.30
2009,04,24,01,50,7.20
2009,04,24,01,51,7.20
2009,04,24,01,52,7.20
2009,04,24,01,53,7.20
2009,04,24,01,54,7.20
2009,04,24,01,55,7.20
2009,04,24,01,56,7.10
2009,04,24,01,57,7.10
2009,04,24,01,58,7.10
2009,04,24,01,59,7.10
2009,04,24,02,00,7.10
2009,04,24,02,01,7.00
2009,04,24,02,02,7.00
2009,04,24,02,03,7.00
2009,04,24,02,04,7.00
2009,04,24,02,05,7.00
2009,04,24,02,06,7.00
2009,04,24,02,07,7.00
2009,04,24,02,08,7.00
2009,04,24,02,09,7.00
2009,04,24,02,10,7.00
2009,04,24,02,11,7.00
2009,04,24,02,12,7.00
2009,04,24,02,13,7.00
2009,04,24,02,14,7.00
2009,04,24,02,15,7.00
2009,04,24,02,16,7.00
2009,04,24,02,17,6.90
2009,04,24,02,18,6.90
2009,04,24,02,19,6.90
2009,04,24,02,20,6.90
2009,04,24,02,21,6.80
2009,04,24,02,22,6.80
2009,04,24,02,23,6.80
2009,04,24,02,24,6.80
2009,04,24,02,25,6.80
2009,04,24,02,26,6.80
2009,04,24,02,27,6.80
2009,04,24,02,28,6.90
2009,04,24,02,29,6.90
2009,04,24,02,30,6.90
2009,04,24,02,31,6.90
2009,04,24,02,32,7.00
2009,04,24,02,33,7.00
2009,04,24,02,34,7.00
2009,04,24,02,35,7.00
2009,04,24,02,36,6.90
2009,04,24,02,37,6.90
2009,04,24,02,38,6.90
2009,04,24,02,39,6.90
2009,04,24,02,40,6.90
2009,04,24,02,41,6.80
2009,04,24,02,42,6.80
2009,04,24,02,43,6.80
2009,04,24,02,44,6.80
2009,04,24,02,45,6.80
2009,04,24,02,46,6.80
2009,04,24,02,47,6.70
2009,04,24,02,48,6.70
2009,04,24,02,49,6.70
2009,04,24,02,50,6.70
2009,04,24,02,51,6.60
2009,04,24,02,52,6.60
2009,04,24,02,53,6.60
2009,04,24,02,54,6.50
2009,04,24,02,55,6.30
2009,04,24,02,56,6.20
2009,04,24,02,57,6.10
2009,04,24,02,58,5.90
2009,04,24,02,59,5.80
2009,04,24,03,00,5.70
2009,04,24,03,01,5.50
2009,04,24,03,02,5.40
2009,04,24,03,03,5.30
2009,04,24,03,04,5.20
2009,04,24,03,05,5.10
2009,04,24,03,06,5.00
2009,04,24,03,07,4.90
2009,04,24,03,08,4.90
2009,04,24,03,09,4.80
2009,04,24,03,10,4.80
2009,04,24,03,11,4.70
2009,04,24,03,12,4.70
2009,04,24,03,13,4.60
2009,04,24,03,14,4.60
2009,04,24,03,15,4.60
2009,04,24,03,16,4.60
2009,04,24,03,17,4.60
2009,04,24,03,18,4.60
2009,04,24,03,19,4.60
2009,04,24,03,20,4.50
2009,04,24,03,21,4.50
2009,04,24,03,22,4.50
2009,04,24,03,23,4.50
2009,04,24,03,24,4.50
2009,04,24,03,25,4.50
2009,04,24,03,26,4.50
2009,04,24,03,27,4.50
2009,04,24,03,28,4.40
2009,04,24,03,29,4.40
2009,04,24,03,30,4.40
2009,04,24,03,31,4.40
2009,04,24,03,32,4.30
2009,04,24,03,33,4.30
2009,04,24,03,34,4.30
2009,04,24,03,35,4.30
2009,04,24,03,36,4.20
2009,04,24,03,37,4.20
2009,04,24,03,38,4.20
2009,04,24,03,39,4.20
2009,04,24,03,40,4.00
2009,04,24,03,41,4.00
2009,04,24,03,42,3.90
2009,04,24,03,43,3.80
2009,04,24,03,44,3.80
2009,04,24,03,45,3.80
2009,04,24,03,46,3.70
2009,04,24,03,47,3.70
2009,04,24,03,48,3.70
2009,04,24,03,49,3.70
2009,04,24,03,50,3.70
2009,04,24,03,51,3.70
2009,04,24,03,52,3.70
2009,04,24,03,53,3.60
2009,04,24,03,54,3.60
2009,04,24,03,55,3.60
2009,04,24,03,56,3.60
2009,04,24,03,57,3.50
2009,04,24,03,58,3.50
2009,04,24,03,59,3.50
2009,04,24,04,00,3.50
2009,04,24,04,01,3.60
2009,04,24,04,02,3.50
2009,04,24,04,03,3.60
2009,04,24,04,04,3.60
2009,04,24,04,05,3.70
2009,04,24,04,06,3.80
2009,04,24,04,07,3.80
2009,04,24,04,08,3.80
2009,04,24,04,09,3.80
2009,04,24,04,10,3.80
2009,04,24,04,11,3.80
2009,04,24,04,12,3.80
2009,04,24,04,13,3.80
2009,04,24,04,14,3.80
2009,04,24,04,15,3.80
2009,04,24,04,16,3.80
2009,04,24,04,17,3.80
2009,04,24,04,18,3.80
2009,04,24,04,19,3.70
2009,04,24,04,20,3.70
2009,04,24,04,21,3.70
2009,04,24,04,22,3.60
2009,04,24,04,23,3.60
2009,04,24,04,24,3.50
2009,04,24,04,25,3.50
2009,04,24,04,26,3.50
2009,04,24,04,27,3.50
2009,04,24,04,28,3.40
2009,04,24,04,29,3.40
2009,04,24,04,30,3.40
2009,04,24,04,31,3.40
2009,04,24,04,32,3.40
2009,04,24,04,33,3.40
2009,04,24,04,34,3.40
2009,04,24,04,35,3.40
2009,04,24,04,36,3.30
2009,04,24,04,37,3.30
2009,04,24,04,38,3.30
2009,04,24,04,39,3.30
2009,04,24,04,40,3.30
2009,04,24,04,41,3.30
2009,04,24,04,42,3.20
2009,04,24,04,43,3.20
2009,04,24,04,44,3.20
2009,04,24,04,45,3.20
2009,04,24,04,46,3.20
2009,04,24,04,47,3.20
2009,04,24,04,48,3.20
2009,04,24,04,49,3.20
2009,04,24,04,50,3.20
2009,04,24,04,51,3.20
2009,04,24,04,52,3.20
2009,04,24,04,53,3.20
2009,04,24,04,54,3.10
2009,04,24,04,55,3.10
2009,04,24,04,56,3.10
2009,04,24,04,57,3.10
2009,04,24,04,58,3.10
2009,04,24,04,59,3.20
2009,04,24,05,00,3.20
2009,04,24,05,01,3.20
2009,04,24,05,02,3.20
2009,04,24,05,03,3.20
2009,04,24,05,04,3.20
2009,04,24,05,05,3.10
2009,04,24,05,06,3.10
2009,04,24,05,07,3.10
2009,04,24,05,08,3.10
2009,04,24,05,09,3.10
2009,04,24,05,10,3.00
2009,04,24,05,11,2.90
2009,04,24,05,12,2.90
2009,04,24,05,13,2.90
2009,04,24,05,14,2.80
2009,04,24,05,15,2.80
2009,04,24,05,16,2.70
2009,04,24,05,17,2.70
2009,04,24,05,18,2.70
2009,04,24,05,19,2.70
2009,04,24,05,20,2.70
2009,04,24,05,21,2.70
2009,04,24,05,22,2.70
2009,04,24,05,23,2.70
2009,04,24,05,24,2.70
2009,04,24,05,25,2.60
2009,04,24,05,26,2.60
2009,04,24,05,27,2.60
2009,04,24,05,28,2.70
2009,04,24,05,29,2.70
2009,04,24,05,30,2.70
2009,04,24,05,31,2.70
2009,04,24,05,32,2.70
2009,04,24,05,33,2.70
2009,04,24,05,34,2.70
2009,04,24,05,35,2.70
2009,04,24,05,36,2.60
2009,04,24,05,37,2.60
2009,04,24,05,38,2.60
2009,04,24,05,39,2.60
2009,04,24,05,40,2.50
2009,04,24,05,41,2.50
2009,04,24,05,42,2.50
2009,04,24,05,43,2.50
2009,04,24,05,44,2.50
2009,04,24,05,45,2.40
2009,04,24,05,46,2.40
2009,04,24,05,47,2.40
2009,04,24,05,48,2.40
2009,04,24,05,49,2.40
2009,04,24,05,50,2.40
2009,04,24,05,51,2.40
2009,04,24,05,52,2.30
2009,04,24,05,53,2.30
2009,04,24,05,54,2.30
2009,04,24,05,55,2.30
2009,04,24,05,56,2.30
2009,04,24,05,57,2.30
2009,04,24,05,58,2.30
2009,04,24,05,59,2.30
2009,04,24,06,00,2.30
2009,04,24,06,01,2.30
2009,04,24,06,02,2.30
2009,04,24,06,03,2.30
2009,04,24,06,04,2.30
2009,04,24,06,05,2.30
2009,04,24,06,06,2.30
2009,04,24,06,07,2.30
2009,04,24,06,08,2.30
2009,04,24,06,09,2.40
2009,04,24,06,10,2.40
2009,04,24,06,11,2.40
2009,04,24,06,12,2.40
2009,04,24,06,13,2.40
2009,04,24,06,14,2.50
2009,04,24,06,15,2.50
2009,04,24,06,16,2.50
2009,04,24,06,17,2.60
2009,04,24,06,18,2.60
2009,04,24,06,19,2.60
2009,04,24,06,20,2.60
2009,04,24,06,21,2.70
2009,04,24,06,22,2.70
2009,04,24,06,23,2.70
2009,04,24,06,24,2.70
2009,04,24,06,25,2.70
2009,04,24,06,26,2.70
2009,04,24,06,27,2.70
2009,04,24,06,28,2.80
2009,04,24,06,29,2.80
2009,04,24,06,30,2.80
2009,04,24,06,31,2.80
2009,04,24,06,32,2.90
2009,04,24,06,33,2.90
2009,04,24,06,34,2.90
2009,04,24,06,35,2.90
2009,04,24,06,36,2.90
2009,04,24,06,37,2.90
2009,04,24,06,38,2.90
2009,04,24,06,39,3.10
2009,04,24,06,40,3.10
2009,04,24,06,41,3.10
2009,04,24,06,42,3.10
2009,04,24,06,43,3.10
2009,04,24,06,44,3.10
2009,04,24,06,45,3.10
2009,04,24,06,46,3.10
2009,04,24,06,47,3.20
2009,04,24,06,48,3.20
2009,04,24,06,49,3.20
2009,04,24,06,50,3.20
2009,04,24,06,51,3.20
2009,04,24,06,52,3.20
2009,04,24,06,53,3.20
2009,04,24,06,54,3.20
2009,04,24,06,55,3.20
2009,04,24,06,56,3.20
2009,04,24,06,57,3.20
2009,04,24,06,58,3.30
2009,04,24,06,59,3.30
2009,04,24,07,00,3.30
2009,04,24,07,01,3.30
2009,04,24,07,02,3.30
2009,04,24,07,03,3.30
2009,04,24,07,04,3.40
2009,04,24,07,05,3.40
2009,04,24,07,06,3.50
2009,04,24,07,07,3.50
2009,04,24,07,08,3.60
2009,04,24,07,09,3.60
2009,04,24,07,10,3.70
2009,04,24,07,11,3.70
2009,04,24,07,12,3.70
2009,04,24,07,13,3.80
2009,04,24,07,14,3.80
2009,04,24,07,15,3.80
2009,04,24,07,16,3.80
2009,04,24,07,17,3.80
2009,04,24,07,18,3.90
2009,04,24,07,19,3.90
2009,04,24,07,20,4.00
2009,04,24,07,21,4.00
2009,04,24,07,22,4.00
2009,04,24,07,23,4.10
2009,04,24,07,24,4.10
2009,04,24,07,25,4.10
2009,04,24,07,26,4.20
2009,04,24,07,27,4.20
2009,04,24,07,28,4.20
2009,04,24,07,29,4.30
2009,04,24,07,30,4.30
2009,04,24,07,31,4.40
2009,04,24,07,32,4.40
2009,04,24,07,33,4.50
2009,04,24,07,34,4.60
2009,04,24,07,35,4.60
2009,04,24,07,36,4.60
2009,04,24,07,37,4.70
2009,04,24,07,38,4.70
2009,04,24,07,39,4.70
2009,04,24,07,40,4.70
2009,04,24,07,41,4.80
2009,04,24,07,42,4.80
2009,04,24,07,43,4.90
2009,04,24,07,44,4.90
2009,04,24,07,45,4.90
2009,04,24,07,46,5.10
2009,04,24,07,47,5.10
2009,04,24,07,48,5.10
2009,04,24,07,49,5.10
2009,04,24,07,50,5.20
2009,04,24,07,51,5.30
2009,04,24,07,52,5.40
2009,04,24,07,53,5.50
2009,04,24,07,54,5.50
2009,04,24,07,55,5.60
2009,04,24,07,56,5.70
2009,04,24,07,57,5.70
2009,04,24,07,58,5.80
2009,04,24,07,59,5.90
2009,04,24,08,00,6.00
2009,04,24,08,01,6.00
2009,04,24,08,02,6.10
2009,04,24,08,03,6.20
2009,04,24,08,04,6.20
2009,04,24,08,05,6.20
2009,04,24,08,06,6.30
2009,04,24,08,07,6.30
2009,04,24,08,08,6.40
2009,04,24,08,09,6.40
2009,04,24,08,10,6.50
2009,04,24,08,11,6.60
2009,04,24,08,12,6.60
2009,04,24,08,13,6.70
2009,04,24,08,14,6.70
2009,04,24,08,15,6.80
2009,04,24,08,16,6.80
2009,04,24,08,17,6.90
2009,04,24,08,18,6.90
2009,04,24,08,19,6.90
2009,04,24,08,20,6.90
2009,04,24,08,21,7.00
2009,04,24,08,22,7.00
2009,04,24,08,23,7.00
2009,04,24,08,24,7.10
2009,04,24,08,25,7.10
2009,04,24,08,26,7.10
2009,04,24,08,27,7.20
2009,04,24,08,28,7.20
2009,04,24,08,29,7.30
2009,04,24,08,30,7.30
2009,04,24,08,31,7.30
2009,04,24,08,32,7.40
2009,04,24,08,33,7.40
2009,04,24,08,34,7.50
2009,04,24,08,35,7.60
2009,04,24,08,36,7.60
2009,04,24,08,37,7.70
2009,04,24,08,38,7.80
2009,04,24,08,39,7.80
2009,04,24,08,40,7.90
2009,04,24,08,41,7.90
2009,04,24,08,42,7.90
2009,04,24,08,43,7.90
2009,04,24,08,44,7.90
2009,04,24,08,45,8.00
2009,04,24,08,46,8.00
2009,04,24,08,47,8.00
2009,04,24,08,48,8.10
2009,04,24,08,49,8.10
2009,04,24,08,50,8.20
2009,04,24,08,51,8.20
2009,04,24,08,52,8.20
2009,04,24,08,53,8.30
2009,04,24,08,54,8.40
2009,04,24,08,55,8.40
2009,04,24,08,56,8.60
2009,04,24,08,57,8.70
2009,04,24,08,58,8.70
2009,04,24,08,59,8.80
2009,04,24,09,00,8.90
2009,04,24,09,01,9.00
2009,04,24,09,02,9.10
2009,04,24,09,03,9.20
2009,04,24,09,04,9.20
2009,04,24,09,05,9.20
2009,04,24,09,06,9.20
2009,04,24,09,07,9.20
2009,04,24,09,08,9.20
2009,04,24,09,09,9.20
2009,04,24,09,10,9.20
2009,04,24,09,11,9.20
2009,04,24,09,12,9.20
2009,04,24,09,13,9.20
2009,04,24,09,14,9.30
2009,04,24,09,15,9.30
2009,04,24,09,16,9.40
2009,04,24,09,17,9.40
2009,04,24,09,18,9.50
2009,04,24,09,19,9.60
2009,04,24,09,20,9.70
2009,04,24,09,21,9.70
2009,04,24,09,22,9.70
2009,04,24,09,23,9.80
2009,04,24,09,24,9.80
2009,04,24,09,25,9.80
2009,04,24,09,26,9.90
2009,04,24,09,27,10.00
2009,04,24,09,28,10.10
2009,04,24,09,29,10.20
2009,04,24,09,30,10.30
2009,04,24,09,31,10.40
2009,04,24,09,32,10.40
2009,04,24,09,33,10.50
2009,04,24,09,34,10.60
2009,04,24,09,35,10.60
2009,04,24,09,36,10.60
2009,04,24,09,37,10.70
2009,04,24,09,38,10.70
2009,04,24,09,39,10.80
2009,04,24,09,40,10.90
2009,04,24,09,41,10.90
2009,04,24,09,42,10.90
2009,04,24,09,43,10.90
2009,04,24,09,44,10.90
2009,04,24,09,45,10.90
2009,04,24,09,46,10.90
2009,04,24,09,47,10.90
2009,04,24,09,48,10.70
2009,04,24,09,49,10.40
2009,04,24,09,50,10.20
2009,04,24,09,51,10.10
2009,04,24,09,52,10.10
2009,04,24,09,53,10.10
2009,04,24,09,54,10.10
2009,04,24,09,55,10.00
2009,04,24,09,56,10.00
2009,04,24,09,57,10.10
2009,04,24,09,58,10.10
2009,04,24,09,59,10.20
2009,04,24,10,00,10.30
2009,04,24,10,01,10.20
2009,04,24,10,02,10.30
2009,04,24,10,03,10.20
2009,04,24,10,04,10.20
2009,04,24,10,05,10.10
2009,04,24,10,06,9.90
2009,04,24,10,07,9.90
2009,04,24,10,08,9.80
2009,04,24,10,09,9.80
2009,04,24,10,10,9.80
2009,04,24,10,11,9.80
2009,04,24,10,12,9.80
2009,04,24,10,13,9.90
2009,04,24,10,14,10.00
2009,04,24,10,15,10.00
2009,04,24,10,16,9.90
2009,04,24,10,17,9.90
2009,04,24,10,18,10.10
2009,04,24,10,19,10.10
2009,04,24,10,20,10.10
2009,04,24,10,21,10.20
2009,04,24,10,22,10.30
2009,04,24,10,23,10.40
2009,04,24,10,24,10.50
2009,04,24,10,25,10.60
2009,04,24,10,26,10.80
2009,04,24,10,27,10.80
2009,04,24,10,28,10.70
2009,04,24,10,29,10.60
2009,04,24,10,30,10.70
2009,04,24,10,31,10.70
2009,04,24,10,32,10.60
2009,04,24,10,33,10.70
2009,04,24,10,34,10.70
2009,04,24,10,35,10.80
2009,04,24,10,36,10.90
2009,04,24,10,37,10.90
2009,04,24,10,38,10.90
2009,04,24,10,39,10.90
2009,04,24,10,40,10.70
2009,04,24,10,41,10.70
2009,04,24,10,42,10.60
2009,04,24,10,43,10.60
2009,04,24,10,44,10.60
2009,04,24,10,45,10.70
2009,04,24,10,46,10.70
2009,04,24,10,47,10.60
2009,04,24,10,48,10.50
2009,04,24,10,49,10.30
2009,04,24,10,50,10.20
2009,04,24,10,51,10.10
2009,04,24,10,52,10.10
2009,04,24,10,53,10.10
2009,04,24,10,54,10.20
2009,04,24,10,55,10.20
2009,04,24,10,56,10.20
2009,04,24,10,57,10.30
2009,04,24,10,58,10.40
2009,04,24,10,59,10.30
2009,04,24,11,00,10.30
2009,04,24,11,01,10.30
2009,04,24,11,02,10.40
2009,04,24,11,03,10.60
2009,04,24,11,04,10.80
2009,04,24,11,05,11.10
2009,04,24,11,06,11.20
2009,04,24,11,07,11.40
2009,04,24,11,08,11.40
2009,04,24,11,09,11.30
2009,04,24,11,10,11.30
2009,04,24,11,11,11.20
2009,04,24,11,12,11.20
2009,04,24,11,13,11.00
2009,04,24,11,14,10.80
2009,04,24,11,15,10.60
2009,04,24,11,16,10.40
2009,04,24,11,17,10.40
2009,04,24,11,18,10.60
2009,04,24,11,19,10.60
2009,04,24,11,20,10.90
2009,04,24,11,21,10.90
2009,04,24,11,22,10.90
2009,04,24,11,23,10.90
2009,04,24,11,24,10.90
2009,04,24,11,25,11.00
2009,04,24,11,26,11.10
2009,04,24,11,27,11.10
2009,04,24,11,28,10.90
2009,04,24,11,29,10.80
2009,04,24,11,30,10.60
2009,04,24,11,31,10.60
2009,04,24,11,32,10.50
2009,04,24,11,33,10.50
2009,04,24,11,34,10.70
2009,04,24,11,35,10.90
2009,04,24,11,36,11.00
2009,04,24,11,37,11.10
2009,04,24,11,38,10.90
2009,04,24,11,39,10.70
2009,04,24,11,40,10.70
2009,04,24,11,41,10.70
2009,04,24,11,42,10.60
2009,04,24,11,43,10.50
2009,04,24,11,44,10.50
2009,04,24,11,45,10.40
2009,04,24,11,46,10.40
2009,04,24,11,47,10.40
2009,04,24,11,48,10.40
2009,04,24,11,49,10.40
2009,04,24,11,50,10.30
2009,04,24,11,51,10.30
2009,04,24,11,52,10.30
2009,04,24,11,53,10.20
2009,04,24,11,54,10.10
2009,04,24,11,55,10.10
2009,04,24,11,56,10.00
2009,04,24,11,57,10.10
2009,04,24,11,58,10.10
2009,04,24,11,59,10.30
2009,04,24,12,00,10.50
2009,04,24,12,01,10.70
2009,04,24,12,02,10.90
2009,04,24,12,03,11.10
2009,04,24,12,04,11.10
2009,04,24,12,05,11.20
2009,04,24,12,06,11.10
2009,04,24,12,07,11.10
2009,04,24,12,08,11.10
2009,04,24,12,09,11.10
2009,04,24,12,10,10.90
2009,04,24,12,11,10.80
2009,04,24,12,12,10.70
2009,04,24,12,13,10.70
2009,04,24,12,14,10.80
2009,04,24,12,15,10.80
2009,04,24,12,16,10.60
2009,04,24,12,17,10.60
2009,04,24,12,18,10.60
2009,04,24,12,19,10.50
2009,04,24,12,20,10.40
2009,04,24,12,21,10.20
2009,04,24,12,22,9.90
2009,04,24,12,23,9.80
2009,04,24,12,24,9.70
2009,04,24,12,25,9.70
2009,04,24,12,26,9.70
2009,04,24,12,27,9.70
2009,04,24,12,28,9.80
2009,04,24,12,29,9.80
2009,04,24,12,30,9.80
2009,04,24,12,31,9.80
2009,04,24,12,32,9.90
2009,04,24,12,33,10.00
2009,04,24,12,34,10.10
2009,04,24,12,35,10.10
2009,04,24,12,36,10.20
2009,04,24,12,37,10.40
2009,04,24,12,38,10.50
2009,04,24,12,39,10.60
2009,04,24,12,40,10.60
2009,04,24,12,41,10.60
2009,04,24,12,42,10.40
2009,04,24,12,43,10.40
2009,04,24,12,44,10.50
2009,04,24,12,45,10.70
2009,04,24,12,46,10.90
2009,04,24,12,47,10.90
2009,04,24,12,48,11.00
2009,04,24,12,49,11.20
2009,04,24,12,50,11.30
2009,04,24,12,51,11.40
2009,04,24,12,52,11.30
2009,04,24,12,53,11.10
2009,04,24,12,54,11.10
2009,04,24,12,55,10.90
2009,04,24,12,56,10.90
2009,04,24,12,57,10.90
2009,04,24,12,58,10.80
2009,04,24,12,59,10.90
2009,04,24,13,00,10.90
2009,04,24,13,01,10.80
2009,04,24,13,02,10.60
2009,04,24,13,03,10.60
2009,04,24,13,04,10.70
2009,04,24,13,05,10.70
2009,04,24,13,06,10.50
2009,04,24,13,07,10.40
2009,04,24,13,08,10.40
2009,04,24,13,09,10.40
2009,04,24,13,10,10.60
2009,04,24,13,11,10.70
2009,04,24,13,12,10.60
2009,04,24,13,13,10.50
2009,04,24,13,14,10.40
2009,04,24,13,15,10.20
2009,04,24,13,16,10.10
2009,04,24,13,17,10.20
2009,04,24,13,18,10.20
2009,04,24,13,19,10.10
2009,04,24,13,20,10.00
2009,04,24,13,21,10.00
2009,04,24,13,22,10.10
2009,04,24,13,23,10.20
2009,04,24,13,24,10.30
2009,04,24,13,25,10.30
2009,04,24,13,26,10.10
2009,04,24,13,27,10.10
2009,04,24,13,28,10.00
2009,04,24,13,29,9.90
2009,04,24,13,30,10.00
2009,04,24,13,31,10.10
2009,04,24,13,32,10.30
2009,04,24,13,33,10.30
2009,04,24,13,34,10.30
2009,04,24,13,35,10.30
2009,04,24,13,36,10.30
2009,04,24,13,37,10.40
2009,04,24,13,38,10.50
2009,04,24,13,39,10.60
2009,04,24,13,40,10.40
2009,04,24,13,41,10.30
2009,04,24,13,42,10.30
2009,04,24,13,43,10.40
2009,04,24,13,44,10.50
2009,04,24,13,45,10.60
2009,04,24,13,46,10.30
2009,04,24,13,47,10.20
2009,04,24,13,48,10.10
2009,04,24,13,49,9.90
2009,04,24,13,50,9.70
2009,04,24,13,51,9.50
2009,04,24,13,52,9.40
2009,04,24,13,53,9.50
2009,04,24,13,54,9.60
2009,04,24,13,55,9.70
2009,04,24,13,56,9.70
2009,04,24,13,57,9.70
2009,04,24,13,58,9.60
2009,04,24,13,59,9.60
2009,04,24,14,00,9.70
2009,04,24,14,01,9.70
2009,04,24,14,02,9.80
2009,04,24,14,03,9.70
2009,04,24,14,04,9.70
2009,04,24,14,05,9.70
2009,04,24,14,06,9.70
2009,04,24,14,07,9.70
2009,04,24,14,08,9.70
2009,04,24,14,09,9.60
2009,04,24,14,10,9.80
2009,04,24,14,11,10.00
2009,04,24,14,12,10.10
2009,04,24,14,13,10.30
2009,04,24,14,14,10.20
2009,04,24,14,15,10.20
2009,04,24,14,16,10.30
2009,04,24,14,17,10.40
2009,04,24,14,18,10.40
2009,04,24,14,19,10.40
2009,04,24,14,20,10.40
2009,04,24,14,21,10.50
2009,04,24,14,22,10.70
2009,04,24,14,23,10.80
2009,04,24,14,24,10.90
2009,04,24,14,25,10.90
2009,04,24,14,26,10.90
2009,04,24,14,27,10.90
2009,04,24,14,28,11.10
2009,04,24,14,29,11.10
2009,04,24,14,30,10.80
2009,04,24,14,31,10.60
2009,04,24,14,32,10.50
2009,04,24,14,33,10.40
2009,04,24,14,34,10.40
2009,04,24,14,35,10.40
2009,04,24,14,36,10.30
2009,04,24,14,37,10.40
2009,04,24,14,38,10.40
2009,04,24,14,39,10.40
2009,04,24,14,40,10.40
2009,04,24,14,41,10.40
2009,04,24,14,42,10.30
2009,04,24,14,43,10.20
2009,04,24,14,44,10.10
2009,04,24,14,45,10.10
2009,04,24,14,46,10.20
2009,04,24,14,47,10.30
2009,04,24,14,48,10.30
2009,04,24,14,49,10.40
2009,04,24,14,50,10.50
2009,04,24,14,51,10.60
2009,04,24,14,52,10.60
2009,04,24,14,53,10.60
2009,04,24,14,54,10.60
2009,04,24,14,55,10.50
2009,04,24,14,56,10.60
2009,04,24,14,57,10.70
2009,04,24,14,58,10.90
2009,04,24,14,59,10.90
2009,04,24,15,00,10.90
2009,04,24,15,01,10.80
2009,04,24,15,02,10.60
2009,04,24,15,03,10.60
2009,04,24,15,04,10.60
2009,04,24,15,05,10.60
2009,04,24,15,06,10.70
2009,04,24,15,07,10.70
2009,04,24,15,08,10.60
2009,04,24,15,09,10.70
2009,04,24,15,10,10.80
2009,04,24,15,11,10.90
2009,04,24,15,12,11.00
2009,04,24,15,13,11.10
2009,04,24,15,14,11.20
2009,04,24,15,15,11.20
2009,04,24,15,16,11.10
2009,04,24,15,17,11.10
2009,04,24,15,18,11.10
2009,04,24,15,19,10.90
2009,04,24,15,20,10.80
2009,04,24,15,21,10.70
2009,04,24,15,22,10.70
2009,04,24,15,23,10.70
2009,04,24,15,24,10.80
2009,04,24,15,25,11.00
2009,04,24,15,26,11.10
2009,04,24,15,27,11.10
2009,04,24,15,28,11.10
2009,04,24,15,29,11.10
2009,04,24,15,30,11.00
2009,04,24,15,31,10.70
2009,04,24,15,32,10.40
2009,04,24,15,33,10.40
2009,04,24,15,34,10.40
2009,04,24,15,35,10.40
2009,04,24,15,36,10.40
2009,04,24,15,37,10.30
2009,04,24,15,38,10.40
2009,04,24,15,39,10.40
2009,04,24,15,40,10.30
2009,04,24,15,41,10.30
2009,04,24,15,42,10.40
2009,04,24,15,43,10.40
2009,04,24,15,44,10.40
2009,04,24,15,45,10.50
2009,04,24,15,46,10.60
2009,04,24,15,47,10.70
2009,04,24,15,48,10.80
2009,04,24,15,49,10.80
2009,04,24,15,50,10.90
2009,04,24,15,51,10.90
2009,04,24,15,52,11.00
2009,04,24,15,53,11.10
2009,04,24,15,54,11.10
2009,04,24,15,55,11.20
2009,04,24,15,56,11.30
2009,04,24,15,57,11.50
2009,04,24,15,58,11.60
2009,04,24,15,59,11.60
2009,04,24,16,00,11.70
2009,04,24,16,01,11.80
2009,04,24,16,02,11.70
2009,04,24,16,03,11.70
2009,04,24,16,04,11.60
2009,04,24,16,05,11.60
2009,04,24,16,06,11.60
2009,04,24,16,07,11.70
2009,04,24,16,08,11.70
2009,04,24,16,09,11.80
2009,04,24,16,10,12.00
2009,04,24,16,11,12.10
2009,04,24,16,12,12.30
2009,04,24,16,13,12.60
2009,04,24,16,14,12.80
2009,04,24,16,15,13.00
2009,04,24,16,16,13.20
2009,04,24,16,17,13.40
2009,04,24,16,18,13.40
2009,04,24,16,19,13.50
2009,04,24,16,20,13.60
2009,04,24,16,21,13.60
2009,04,24,16,22,13.80
2009,04,24,16,23,14.00
2009,04,24,16,24,14.40
2009,04,24,16,25,14.70
2009,04,24,16,26,14.90
2009,04,24,16,27,15.10
2009,04,24,16,28,15.20
2009,04,24,16,29,15.30
2009,04,24,16,30,15.30
2009,04,24,16,31,15.40
2009,04,24,16,32,15.50
2009,04,24,16,33,15.50
2009,04,24,16,34,15.50
2009,04,24,16,35,15.60
2009,04,24,16,36,15.70
2009,04,24,16,37,15.80
2009,04,24,16,38,15.90
2009,04,24,16,39,16.00
2009,04,24,16,40,16.00
2009,04,24,16,41,15.90
2009,04,24,16,42,15.80
2009,04,24,16,43,15.80
2009,04,24,16,44,15.80
2009,04,24,16,45,15.80
2009,04,24,16,46,15.80
2009,04,24,16,47,15.90
2009,04,24,16,48,16.00
2009,04,24,16,49,16.10
2009,04,24,16,50,16.10
2009,04,24,16,51,16.10
2009,04,24,16,52,16.10
2009,04,24,16,53,16.10
2009,04,24,16,54,15.90
2009,04,24,16,55,15.90
2009,04,24,16,56,16.00
2009,04,24,16,57,16.10
2009,04,24,16,58,16.10
2009,04,24,16,59,16.10
2009,04,24,17,00,16.10
2009,04,24,17,01,16.10
2009,04,24,17,02,16.00
2009,04,24,17,03,15.80
2009,04,24,17,04,15.80
2009,04,24,17,05,15.80
2009,04,24,17,06,15.80
2009,04,24,17,07,15.80
2009,04,24,17,08,15.80
2009,04,24,17,09,15.80
2009,04,24,17,10,15.80
2009,04,24,17,11,15.80
2009,04,24,17,12,15.80
2009,04,24,17,13,15.70
2009,04,24,17,14,15.60
2009,04,24,17,15,15.50
2009,04,24,17,16,15.50
2009,04,24,17,17,15.50
2009,04,24,17,18,15.50
2009,04,24,17,19,15.40
2009,04,24,17,20,15.40
2009,04,24,17,21,15.30
2009,04,24,17,22,15.30
2009,04,24,17,23,15.20
2009,04,24,17,24,15.20
2009,04,24,17,25,15.20
2009,04,24,17,26,15.20
2009,04,24,17,27,15.20
2009,04,24,17,28,15.20
2009,04,24,17,29,15.20
2009,04,24,17,30,15.20
2009,04,24,17,31,15.30
2009,04,24,17,32,15.30
2009,04,24,17,33,15.30
2009,04,24,17,34,15.30
2009,04,24,17,35,15.30
2009,04,24,17,36,15.30
2009,04,24,17,37,15.30
2009,04,24,17,38,15.30
2009,04,24,17,39,15.20
2009,04,24,17,40,15.20
2009,04,24,17,41,15.10
2009,04,24,17,42,15.10
2009,04,24,17,43,15.10
2009,04,24,17,44,15.10
2009,04,24,17,45,15.10
2009,04,24,17,46,15.10